Time,TemperatureF,DewpointF,PressureIn,WindDirection,WindDirectionDegrees,WindSpeedMPH,WindSpeedGustMPH,Humidity,HourlyPrecipIn,Conditions,Clouds,dailyrainin,SoftwareType,DateUTC
2013-02-22 00:02:00,36.5,32.4,30.18,NW,315,0.4,1.1,85,0.00,,,0.00,WUHU216HW,2013-02-22 08:02:00,
2013-02-22 00:07:00,36.4,32.2,30.18,NNW,338,0.0,1.1,85,0.00,,,0.00,WUHU216HW,2013-02-22 08:07:00,
2013-02-22 00:12:00,36.4,32.2,30.18,NNW,338,0.0,0.4,85,0.00,,,0.00,WUHU216HW,2013-02-22 08:12:00,
2013-02-22 00:17:00,36.2,32.0,30.19,NNW,338,0.0,0.0,85,0.00,,,0.00,WUHU216HW,2013-02-22 08:17:00,
2013-02-22 00:22:00,35.8,31.7,30.19,NW,315,0.0,0.2,85,0.00,,,0.00,WUHU216HW,2013-02-22 08:22:00,
2013-02-22 00:27:00,35.6,31.8,30.19,North,0,0.4,0.4,86,0.00,,,0.00,WUHU216HW,2013-02-22 08:27:00,
2013-02-22 00:32:00,35.6,31.8,30.19,NNW,338,0.0,0.4,86,0.00,,,0.00,WUHU216HW,2013-02-22 08:32:00,
2013-02-22 00:37:00,35.5,31.6,30.19,NNW,338,0.0,0.4,86,0.00,,,0.00,WUHU216HW,2013-02-22 08:37:00,
2013-02-22 00:42:00,35.5,31.6,30.19,WNW,293,0.2,1.1,86,0.00,,,0.00,WUHU216HW,2013-02-22 08:42:00,
2013-02-22 00:47:00,35.3,31.1,30.19,WNW,293,0.0,1.1,85,0.00,,,0.00,WUHU216HW,2013-02-22 08:47:00,
2013-02-22 00:52:00,35.5,31.3,30.19,NW,315,0.4,0.4,85,0.00,,,0.00,WUHU216HW,2013-02-22 08:52:00,
2013-02-22 00:57:00,35.3,31.4,30.20,WNW,293,0.0,0.7,86,0.00,,,0.00,WUHU216HW,2013-02-22 08:57:00,
2013-02-22 01:02:00,35.3,31.4,30.20,NW,315,0.0,0.7,86,0.00,,,0.00,WUHU216HW,2013-02-22 09:02:00,
2013-02-22 01:07:00,35.1,31.0,30.20,NNW,338,0.0,0.0,85,0.00,,,0.00,WUHU216HW,2013-02-22 09:07:00,
2013-02-22 01:12:00,34.9,30.8,30.20,NE,45,0.0,0.0,85,0.00,,,0.00,WUHU216HW,2013-02-22 09:12:00,
2013-02-22 01:17:00,34.7,30.9,30.20,East,90,0.0,0.4,86,0.00,,,0.00,WUHU216HW,2013-02-22 09:17:00,
2013-02-22 01:22:00,34.4,30.5,30.20,East,90,0.0,0.4,86,0.00,,,0.00,WUHU216HW,2013-02-22 09:22:00,
2013-02-22 01:27:00,34.2,30.6,30.20,East,90,0.0,0.2,87,0.00,,,0.00,WUHU216HW,2013-02-22 09:27:00,
2013-02-22 01:32:00,34.2,30.6,30.20,ENE,68,0.0,0.0,87,0.00,,,0.00,WUHU216HW,2013-02-22 09:32:00,
2013-02-22 01:37:00,34.2,30.3,30.20,ENE,68,0.0,0.0,86,0.00,,,0.00,WUHU216HW,2013-02-22 09:37:00,
2013-02-22 01:42:00,34.0,30.2,30.20,ENE,68,0.0,0.0,86,0.00,,,0.00,WUHU216HW,2013-02-22 09:42:00,
2013-02-22 01:47:00,33.8,30.0,30.20,ENE,68,0.0,0.0,86,0.00,,,0.00,WUHU216HW,2013-02-22 09:47:00,
2013-02-22 01:52:00,33.8,30.0,30.19,SE,135,0.2,0.2,86,0.00,,,0.00,WUHU216HW,2013-02-22 09:52:00,
2013-02-22 01:57:00,33.7,29.8,30.19,North,0,0.0,0.4,86,0.00,,,0.00,WUHU216HW,2013-02-22 09:57:00,
2013-02-22 02:02:00,33.7,29.8,30.19,North,0,0.0,0.4,86,0.00,,,0.00,WUHU216HW,2013-02-22 10:02:00,
2013-02-22 02:07:00,33.7,29.8,30.19,WNW,293,0.0,0.4,86,0.00,,,0.00,WUHU216HW,2013-02-22 10:07:00,
2013-02-22 02:12:00,33.7,29.8,30.19,NNW,338,0.0,0.4,86,0.00,,,0.00,WUHU216HW,2013-02-22 10:12:00,
2013-02-22 02:17:00,33.7,29.8,30.19,North,0,0.0,0.0,86,0.00,,,0.00,WUHU216HW,2013-02-22 10:17:00,
2013-02-22 02:22:00,33.5,29.7,30.19,NNW,338,0.0,0.4,86,0.00,,,0.00,WUHU216HW,2013-02-22 10:22:00,
2013-02-22 02:27:00,33.5,30.0,30.19,North,0,0.0,0.4,87,0.00,,,0.00,WUHU216HW,2013-02-22 10:27:00,
2013-02-22 02:32:00,33.7,30.2,30.19,North,0,0.2,0.2,87,0.00,,,0.00,WUHU216HW,2013-02-22 10:32:00,
2013-02-22 02:37:00,33.8,30.6,30.18,NNW,338,0.0,0.2,88,0.00,,,0.00,WUHU216HW,2013-02-22 10:37:00,
2013-02-22 02:42:00,33.8,30.2,30.18,NNW,338,0.0,0.0,87,0.00,,,0.00,WUHU216HW,2013-02-22 10:42:00,
2013-02-22 02:47:00,33.7,30.4,30.18,NNE,23,0.0,0.4,88,0.00,,,0.00,WUHU216HW,2013-02-22 10:47:00,
2013-02-22 02:52:00,33.5,30.2,30.18,NNE,23,0.0,0.4,88,0.00,,,0.00,WUHU216HW,2013-02-22 10:52:00,
2013-02-22 02:57:00,33.5,30.0,30.18,NNE,23,0.0,0.2,87,0.00,,,0.00,WUHU216HW,2013-02-22 10:57:00,
2013-02-22 03:02:00,33.5,30.0,30.18,NNE,23,0.0,0.0,87,0.00,,,0.00,WUHU216HW,2013-02-22 11:02:00,
2013-02-22 03:07:00,33.5,30.0,30.18,NNE,23,0.0,0.0,87,0.00,,,0.00,WUHU216HW,2013-02-22 11:07:00,
2013-02-22 03:12:00,33.5,30.0,30.18,NNE,23,0.0,0.0,87,0.00,,,0.00,WUHU216HW,2013-02-22 11:12:00,
2013-02-22 03:17:00,33.5,30.0,30.18,NNW,338,0.0,0.0,87,0.00,,,0.00,WUHU216HW,2013-02-22 11:17:00,
2013-02-22 03:22:00,33.5,30.0,30.18,NNW,338,0.0,0.0,87,0.00,,,0.00,WUHU216HW,2013-02-22 11:22:00,
2013-02-22 03:27:00,33.5,30.0,30.18,NNW,338,0.0,0.0,87,0.00,,,0.00,WUHU216HW,2013-02-22 11:27:00,
2013-02-22 03:32:00,33.3,29.8,30.18,SE,135,0.0,0.4,87,0.00,,,0.00,WUHU216HW,2013-02-22 11:32:00,
2013-02-22 03:37:00,32.9,29.4,30.18,SSE,158,0.0,0.4,87,0.00,,,0.00,WUHU216HW,2013-02-22 11:37:00,
2013-02-22 03:42:00,32.8,29.4,30.18,SSE,158,0.0,0.0,87,0.00,,,0.00,WUHU216HW,2013-02-22 11:42:00,
2013-02-22 03:47:00,32.6,29.4,30.18,East,90,0.0,0.0,88,0.00,,,0.00,WUHU216HW,2013-02-22 11:47:00,
2013-02-22 03:52:00,32.4,29.0,30.18,East,90,0.0,0.0,87,0.00,,,0.00,WUHU216HW,2013-02-22 11:52:00,
2013-02-22 03:57:00,32.4,29.0,30.19,SE,135,0.0,0.0,87,0.00,,,0.00,WUHU216HW,2013-02-22 11:57:00,
2013-02-22 04:02:00,32.4,29.0,30.19,ESE,113,0.0,0.0,87,0.00,,,0.00,WUHU216HW,2013-02-22 12:02:00,
2013-02-22 04:07:00,32.2,28.8,30.19,ESE,113,0.0,0.0,87,0.00,,,0.00,WUHU216HW,2013-02-22 12:07:00,
2013-02-22 04:12:00,32.0,28.6,30.19,ESE,113,0.0,0.0,87,0.00,,,0.00,WUHU216HW,2013-02-22 12:12:00,
2013-02-22 04:17:00,32.0,28.6,30.19,North,0,0.0,0.0,87,0.00,,,0.00,WUHU216HW,2013-02-22 12:17:00,
2013-02-22 04:22:00,32.0,28.6,30.20,NNW,338,0.0,0.0,87,0.00,,,0.00,WUHU216HW,2013-02-22 12:22:00,
2013-02-22 04:27:00,32.0,28.6,30.20,NW,315,0.0,0.0,87,0.00,,,0.00,WUHU216HW,2013-02-22 12:27:00,
2013-02-22 04:32:00,32.0,29.0,30.20,NW,315,0.0,0.0,88,0.00,,,0.00,WUHU216HW,2013-02-22 12:32:00,
2013-02-22 04:37:00,32.0,29.0,30.20,NW,315,0.0,0.0,88,0.00,,,0.00,WUHU216HW,2013-02-22 12:37:00,
2013-02-22 04:42:00,32.0,28.6,30.21,North,0,0.0,0.0,87,0.00,,,0.00,WUHU216HW,2013-02-22 12:42:00,
2013-02-22 04:47:00,32.0,29.0,30.20,North,0,0.0,0.9,88,0.00,,,0.00,WUHU216HW,2013-02-22 12:47:00,
2013-02-22 04:52:00,31.9,28.8,30.21,North,0,0.0,0.9,88,0.00,,,0.00,WUHU216HW,2013-02-22 12:52:00,
2013-02-22 04:57:00,32.0,29.0,30.21,North,0,0.0,0.2,88,0.00,,,0.00,WUHU216HW,2013-02-22 12:57:00,
2013-02-22 05:02:00,32.0,29.0,30.21,North,0,0.0,0.0,88,0.00,,,0.00,WUHU216HW,2013-02-22 13:02:00,
2013-02-22 05:07:00,32.0,29.0,30.21,North,0,0.0,0.0,88,0.00,,,0.00,WUHU216HW,2013-02-22 13:07:00,
2013-02-22 05:12:00,32.0,29.0,30.21,North,0,0.0,0.0,88,0.00,,,0.00,WUHU216HW,2013-02-22 13:12:00,
2013-02-22 05:17:00,32.0,29.0,30.21,North,0,0.0,0.0,88,0.00,,,0.00,WUHU216HW,2013-02-22 13:17:00,
2013-02-22 05:22:00,32.0,29.0,30.21,ESE,113,0.0,0.0,88,0.00,,,0.00,WUHU216HW,2013-02-22 13:22:00,
2013-02-22 05:27:00,32.0,29.0,30.21,ESE,113,0.0,0.0,88,0.00,,,0.00,WUHU216HW,2013-02-22 13:27:00,
2013-02-22 05:32:00,32.0,29.0,30.20,ESE,113,0.0,0.0,88,0.00,,,0.00,WUHU216HW,2013-02-22 13:32:00,
2013-02-22 05:37:00,32.0,29.0,30.20,WNW,293,0.0,0.4,88,0.00,,,0.00,WUHU216HW,2013-02-22 13:37:00,
2013-02-22 05:42:00,32.0,29.0,30.20,WNW,293,0.0,0.4,88,0.00,,,0.00,WUHU216HW,2013-02-22 13:42:00,
2013-02-22 05:47:00,32.0,29.0,30.20,NW,315,0.0,0.0,88,0.00,,,0.00,WUHU216HW,2013-02-22 13:47:00,
2013-02-22 05:52:00,32.0,29.0,30.20,North,0,0.0,0.0,88,0.00,,,0.00,WUHU216HW,2013-02-22 13:52:00,
2013-02-22 05:57:00,32.0,29.0,30.20,SE,135,0.0,0.0,88,0.00,,,0.00,WUHU216HW,2013-02-22 13:57:00,
2013-02-22 06:02:00,32.0,29.3,30.21,SE,135,0.0,0.2,89,0.00,,,0.00,WUHU216HW,2013-02-22 14:02:00,
2013-02-22 06:07:00,32.0,29.3,30.21,ESE,113,0.0,0.2,89,0.00,,,0.00,WUHU216HW,2013-02-22 14:07:00,
2013-02-22 06:12:00,32.0,29.3,30.21,SSE,158,0.0,0.2,89,0.00,,,0.00,WUHU216HW,2013-02-22 14:12:00,
2013-02-22 06:17:00,32.2,29.4,30.21,SW,225,0.0,0.2,89,0.00,,,0.00,WUHU216HW,2013-02-22 14:17:00,
2013-02-22 06:22:00,32.2,29.4,30.22,SW,225,0.0,0.0,89,0.00,,,0.00,WUHU216HW,2013-02-22 14:22:00,
2013-02-22 06:27:00,32.2,29.4,30.22,ENE,68,0.0,0.0,89,0.00,,,0.00,WUHU216HW,2013-02-22 14:27:00,
2013-02-22 06:32:00,32.2,29.4,30.22,NE,45,0.0,0.0,89,0.00,,,0.00,WUHU216HW,2013-02-22 14:32:00,
2013-02-22 06:37:00,32.2,29.1,30.22,NNW,338,0.0,0.0,88,0.00,,,0.00,WUHU216HW,2013-02-22 14:37:00,
2013-02-22 06:42:00,32.0,29.0,30.22,NE,45,0.0,0.4,88,0.00,,,0.00,WUHU216HW,2013-02-22 14:42:00,
2013-02-22 06:47:00,32.0,29.0,30.23,NE,45,0.0,0.4,88,0.00,,,0.00,WUHU216HW,2013-02-22 14:47:00,
2013-02-22 06:52:00,32.2,29.4,30.23,ENE,68,0.0,0.0,89,0.00,,,0.00,WUHU216HW,2013-02-22 14:52:00,
2013-02-22 06:57:00,32.4,29.5,30.24,ENE,68,0.0,0.0,89,0.00,,,0.00,WUHU216HW,2013-02-22 14:57:00,
2013-02-22 07:02:00,32.8,29.9,30.24,NW,315,0.4,0.7,89,0.00,,,0.00,WUHU216HW,2013-02-22 15:02:00,
2013-02-22 07:07:00,33.3,30.3,30.24,WNW,293,0.2,0.7,89,0.00,,,0.00,WUHU216HW,2013-02-22 15:07:00,
2013-02-22 07:12:00,33.7,30.7,30.24,West,270,0.0,0.7,89,0.00,,,0.00,WUHU216HW,2013-02-22 15:12:00,
2013-02-22 07:17:00,34.2,31.5,30.24,NNW,338,0.0,0.7,90,0.00,,,0.00,WUHU216HW,2013-02-22 15:17:00,
2013-02-22 07:22:00,34.6,31.6,30.24,NNW,338,0.0,0.2,89,0.00,,,0.00,WUHU216HW,2013-02-22 15:22:00,
2013-02-22 07:27:00,34.9,32.0,30.24,NNW,338,0.0,0.0,89,0.00,,,0.00,WUHU216HW,2013-02-22 15:27:00,
2013-02-22 07:32:00,35.6,32.9,30.24,NNW,338,0.0,0.4,90,0.00,,,0.00,WUHU216HW,2013-02-22 15:32:00,
2013-02-22 07:37:00,36.5,33.8,30.25,North,0,0.0,0.4,90,0.00,,,0.00,WUHU216HW,2013-02-22 15:37:00,
2013-02-22 07:42:00,37.3,34.8,30.25,North,0,0.0,0.9,91,0.00,,,0.00,WUHU216HW,2013-02-22 15:42:00,
2013-02-22 07:47:00,38.0,35.6,30.25,NNW,338,0.0,0.9,91,0.00,,,0.00,WUHU216HW,2013-02-22 15:47:00,
2013-02-22 07:52:00,38.7,36.0,30.25,North,0,0.2,0.2,90,0.00,,,0.00,WUHU216HW,2013-02-22 15:52:00,
2013-02-22 07:57:00,39.2,36.8,30.25,NW,315,0.0,0.4,91,0.00,,,0.00,WUHU216HW,2013-02-22 15:57:00,
2013-02-22 08:02:00,40.0,37.3,30.25,WSW,248,0.0,0.4,90,0.00,,,0.00,WUHU216HW,2013-02-22 16:02:00,
2013-02-22 08:07:00,40.5,37.8,30.26,SSW,203,0.0,0.2,90,0.00,,,0.00,WUHU216HW,2013-02-22 16:07:00,
2013-02-22 08:12:00,41.2,38.3,30.26,West,270,0.4,0.4,89,0.00,,,0.00,WUHU216HW,2013-02-22 16:12:00,
2013-02-22 08:17:00,41.9,39.0,30.26,SSW,203,0.0,0.4,89,0.00,,,0.00,WUHU216HW,2013-02-22 16:17:00,
2013-02-22 08:22:00,42.5,39.2,30.26,SSE,158,0.0,0.4,88,0.00,,,0.00,WUHU216HW,2013-02-22 16:22:00,
2013-02-22 08:27:00,43.2,39.6,30.26,SW,225,0.4,0.7,87,0.00,,,0.00,WUHU216HW,2013-02-22 16:27:00,
2013-02-22 08:32:00,43.7,40.4,30.25,WSW,248,0.2,0.7,88,0.00,,,0.00,WUHU216HW,2013-02-22 16:32:00,
2013-02-22 08:37:00,44.5,41.1,30.26,West,270,0.0,0.9,88,0.00,,,0.00,WUHU216HW,2013-02-22 16:37:00,
2013-02-22 08:42:00,45.0,41.7,30.26,West,270,0.4,1.1,88,0.00,,,0.00,WUHU216HW,2013-02-22 16:42:00,
2013-02-22 08:47:00,45.5,42.0,30.26,SSW,203,0.9,1.1,87,0.00,,,0.00,WUHU216HW,2013-02-22 16:47:00,
2013-02-22 08:52:00,46.4,42.2,30.26,SW,225,1.8,1.8,85,0.00,,,0.00,WUHU216HW,2013-02-22 16:52:00,
2013-02-22 08:57:00,47.0,42.1,30.26,SW,225,0.9,1.8,83,0.00,,,0.00,WUHU216HW,2013-02-22 16:57:00,
2013-02-22 09:02:00,47.7,42.5,30.26,South,180,1.6,1.8,82,0.00,,,0.00,WUHU216HW,2013-02-22 17:02:00,
2013-02-22 09:07:00,48.2,42.7,30.26,WSW,248,0.4,2.5,81,0.00,,,0.00,WUHU216HW,2013-02-22 17:07:00,
2013-02-22 09:12:00,49.1,42.5,30.26,SSE,158,3.4,3.4,78,0.00,,,0.00,WUHU216HW,2013-02-22 17:12:00,
2013-02-22 09:17:00,49.7,42.0,30.25,SW,225,2.0,3.4,75,0.00,,,0.00,WUHU216HW,2013-02-22 17:17:00,
2013-02-22 09:22:00,50.2,41.9,30.26,ENE,68,0.7,3.4,73,0.00,,,0.00,WUHU216HW,2013-02-22 17:22:00,
2013-02-22 09:28:00,50.8,42.1,30.26,SW,225,1.3,2.9,72,0.00,,,0.00,WUHU216HW,2013-02-22 17:28:00,
2013-02-22 09:33:00,51.1,41.8,30.26,SW,225,1.1,3.1,70,0.00,,,0.00,WUHU216HW,2013-02-22 17:33:00,
2013-02-22 09:38:00,51.5,42.1,30.26,South,180,1.1,3.6,70,0.00,,,0.00,WUHU216HW,2013-02-22 17:38:00,
2013-02-22 09:43:00,51.8,41.2,30.26,South,180,1.3,3.8,67,0.00,,,0.00,WUHU216HW,2013-02-22 17:43:00,
2013-02-22 09:48:00,52.2,42.4,30.26,SW,225,1.3,3.8,69,0.00,,,0.00,WUHU216HW,2013-02-22 17:48:00,
2013-02-22 09:53:00,52.4,42.1,30.26,SSE,158,2.5,2.7,68,0.00,,,0.00,WUHU216HW,2013-02-22 17:53:00,
2013-02-22 09:58:00,52.7,41.3,30.26,WSW,248,0.4,3.1,65,0.00,,,0.00,WUHU216HW,2013-02-22 17:58:00,
2013-02-22 10:03:00,52.7,41.3,30.26,WSW,248,1.1,3.6,65,0.00,,,0.00,WUHU216HW,2013-02-22 18:03:00,
2013-02-22 10:08:00,52.9,41.1,30.26,SSE,158,2.2,3.6,64,0.00,,,0.00,WUHU216HW,2013-02-22 18:08:00,
2013-02-22 10:13:00,53.1,40.8,30.26,ESE,113,0.9,2.9,63,0.00,,,0.00,WUHU216HW,2013-02-22 18:13:00,
2013-02-22 10:18:00,53.6,41.0,30.26,SSE,158,1.1,2.5,62,0.00,,,0.00,WUHU216HW,2013-02-22 18:18:00,
2013-02-22 10:23:00,53.8,42.3,30.26,WSW,248,1.1,1.8,65,0.00,,,0.00,WUHU216HW,2013-02-22 18:23:00,
2013-02-22 10:28:00,54.0,42.5,30.26,SW,225,1.1,2.7,65,0.00,,,0.00,WUHU216HW,2013-02-22 18:28:00,
2013-02-22 10:33:00,53.8,41.9,30.26,WNW,293,2.2,2.7,64,0.00,,,0.00,WUHU216HW,2013-02-22 18:33:00,
2013-02-22 10:38:00,54.2,42.2,30.26,WSW,248,1.1,2.7,64,0.00,,,0.00,WUHU216HW,2013-02-22 18:38:00,
2013-02-22 10:43:00,54.4,42.4,30.26,East,90,0.7,2.2,64,0.00,,,0.00,WUHU216HW,2013-02-22 18:43:00,
2013-02-22 10:48:00,54.9,42.9,30.26,South,180,1.1,3.4,64,0.00,,,0.00,WUHU216HW,2013-02-22 18:48:00,
2013-02-22 10:53:00,55.1,41.4,30.26,NW,315,0.2,3.4,60,0.00,,,0.00,WUHU216HW,2013-02-22 18:53:00,
2013-02-22 10:58:00,55.1,42.3,30.26,SW,225,2.5,2.5,62,0.00,,,0.00,WUHU216HW,2013-02-22 18:58:00,
2013-02-22 11:03:00,55.4,42.6,30.26,East,90,1.6,3.1,62,0.00,,,0.00,WUHU216HW,2013-02-22 19:03:00,
2013-02-22 11:08:00,55.4,42.2,30.26,North,0,0.4,3.1,61,0.00,,,0.00,WUHU216HW,2013-02-22 19:08:00,
2013-02-22 11:13:00,55.6,42.8,30.26,WSW,248,0.2,3.8,62,0.00,,,0.00,WUHU216HW,2013-02-22 19:13:00,
2013-02-22 11:18:00,55.8,42.1,30.26,NW,315,0.4,3.8,60,0.00,,,0.00,WUHU216HW,2013-02-22 19:18:00,
2013-02-22 11:23:00,55.8,42.6,30.26,NW,315,2.5,4.0,61,0.00,,,0.00,WUHU216HW,2013-02-22 19:23:00,
2013-02-22 11:28:00,55.8,42.1,30.26,SSW,203,2.2,4.7,60,0.00,,,0.00,WUHU216HW,2013-02-22 19:28:00,
2013-02-22 11:33:00,56.3,43.5,30.25,NW,315,2.7,4.7,62,0.00,,,0.00,WUHU216HW,2013-02-22 19:33:00,
2013-02-22 11:38:00,56.5,42.4,30.25,NW,315,2.0,4.7,59,0.00,,,0.00,WUHU216HW,2013-02-22 19:38:00,
2013-02-22 11:43:00,56.5,42.0,30.25,NNE,23,0.2,3.1,58,0.00,,,0.00,WUHU216HW,2013-02-22 19:43:00,
2013-02-22 11:48:00,56.5,43.7,30.25,SSW,203,1.1,3.6,62,0.00,,,0.00,WUHU216HW,2013-02-22 19:48:00,
2013-02-22 11:54:00,56.7,43.4,30.24,SW,225,1.8,4.0,61,0.00,,,0.00,WUHU216HW,2013-02-22 19:54:00,
2013-02-22 11:59:00,56.9,43.2,30.24,West,270,2.0,4.0,60,0.00,,,0.00,WUHU216HW,2013-02-22 19:59:00,
2013-02-22 12:04:00,57.2,43.9,30.24,South,180,2.2,4.0,61,0.00,,,0.00,WUHU216HW,2013-02-22 20:04:00,
2013-02-22 12:10:00,57.4,41.9,30.23,NW,315,0.7,3.4,56,0.00,,,0.00,WUHU216HW,2013-02-22 20:10:00,
2013-02-22 12:17:00,56.7,44.2,30.23,NW,315,2.9,4.0,63,0.00,,,0.00,WUHU216HW,2013-02-22 20:17:00,
2013-02-22 12:25:00,57.6,43.9,30.23,WSW,248,1.1,4.7,60,0.00,,,0.00,WUHU216HW,2013-02-22 20:25:00,
2013-02-22 12:30:00,57.8,43.1,30.23,WSW,248,1.3,2.9,58,0.00,,,0.00,WUHU216HW,2013-02-22 20:30:00,
2013-02-22 12:35:00,58.0,43.3,30.23,West,270,4.9,5.4,58,0.00,,,0.00,WUHU216HW,2013-02-22 20:35:00,
2013-02-22 12:40:00,58.1,43.5,30.23,NW,315,3.4,5.4,58,0.00,,,0.00,WUHU216HW,2013-02-22 20:40:00,
2013-02-22 12:45:00,58.1,43.5,30.23,NW,315,0.9,4.9,58,0.00,,,0.00,WUHU216HW,2013-02-22 20:45:00,
2013-02-22 12:50:00,57.6,42.0,30.23,WNW,293,1.6,3.8,56,0.00,,,0.00,WUHU216HW,2013-02-22 20:50:00,
2013-02-22 12:55:00,58.0,43.3,30.23,WSW,248,2.5,4.0,58,0.00,,,0.00,WUHU216HW,2013-02-22 20:55:00,
2013-02-22 13:00:00,58.1,43.5,30.22,SSW,203,2.9,4.0,58,0.00,,,0.00,WUHU216HW,2013-02-22 21:00:00,
2013-02-22 13:05:00,58.7,43.9,30.22,SSW,203,1.1,3.4,58,0.00,,,0.00,WUHU216HW,2013-02-22 21:05:00,
2013-02-22 13:10:00,58.9,43.1,30.22,WNW,293,0.9,3.4,56,0.00,,,0.00,WUHU216HW,2013-02-22 21:10:00,
2013-02-22 13:15:00,58.7,43.0,30.22,West,270,2.2,3.6,56,0.00,,,0.00,WUHU216HW,2013-02-22 21:15:00,
2013-02-22 13:20:00,58.5,41.0,30.22,NE,45,3.6,4.7,52,0.00,,,0.00,WUHU216HW,2013-02-22 21:20:00,
2013-02-22 13:25:00,58.3,42.2,30.22,SSW,203,1.1,4.7,55,0.00,,,0.00,WUHU216HW,2013-02-22 21:25:00,
2013-02-22 13:30:00,58.9,42.7,30.22,SW,225,1.6,3.6,55,0.00,,,0.00,WUHU216HW,2013-02-22 21:30:00,
2013-02-22 13:35:00,59.0,42.8,30.21,SSW,203,2.5,3.6,55,0.00,,,0.00,WUHU216HW,2013-02-22 21:35:00,
2013-02-22 13:40:00,58.9,42.2,30.21,NNW,338,0.0,2.7,54,0.00,,,0.00,WUHU216HW,2013-02-22 21:40:00,
2013-02-22 13:45:00,59.0,42.8,30.21,West,270,1.1,2.9,55,0.00,,,0.00,WUHU216HW,2013-02-22 21:45:00,
2013-02-22 13:50:00,59.0,42.8,30.21,NW,315,0.4,4.9,55,0.00,,,0.00,WUHU216HW,2013-02-22 21:50:00,
2013-02-22 13:55:00,59.0,43.3,30.21,NW,315,2.5,5.1,56,0.00,,,0.00,WUHU216HW,2013-02-22 21:55:00,
2013-02-22 14:00:00,58.9,42.2,30.21,WNW,293,0.7,5.1,54,0.00,,,0.00,WUHU216HW,2013-02-22 22:00:00,
2013-02-22 14:05:00,58.7,42.5,30.21,West,270,1.1,4.3,55,0.00,,,0.00,WUHU216HW,2013-02-22 22:05:00,
2013-02-22 14:10:00,58.9,42.7,30.21,West,270,1.3,2.5,55,0.00,,,0.00,WUHU216HW,2013-02-22 22:10:00,
2013-02-22 14:15:00,59.0,41.0,30.20,SW,225,2.2,3.4,51,0.00,,,0.00,WUHU216HW,2013-02-22 22:15:00,
2013-02-22 14:20:00,59.0,42.0,30.21,NW,315,0.0,3.4,53,0.00,,,0.00,WUHU216HW,2013-02-22 22:20:00,
2013-02-22 14:25:00,59.2,41.6,30.20,West,270,1.8,3.1,52,0.00,,,0.00,WUHU216HW,2013-02-22 22:25:00,
2013-02-22 14:30:00,59.4,42.8,30.20,SE,135,1.3,3.4,54,0.00,,,0.00,WUHU216HW,2013-02-22 22:30:00,
2013-02-22 14:35:00,59.8,42.6,30.20,SW,225,0.2,3.4,53,0.00,,,0.00,WUHU216HW,2013-02-22 22:35:00,
2013-02-22 14:40:00,59.8,41.1,30.19,NW,315,0.9,3.4,50,0.00,,,0.00,WUHU216HW,2013-02-22 22:40:00,
2013-02-22 14:45:00,59.4,41.3,30.19,South,180,0.9,2.9,51,0.00,,,0.00,WUHU216HW,2013-02-22 22:45:00,
2013-02-22 14:50:00,59.6,42.4,30.19,West,270,3.8,3.8,53,0.00,,,0.00,WUHU216HW,2013-02-22 22:50:00,
2013-02-22 14:55:00,59.8,42.6,30.19,SW,225,1.8,3.8,53,0.00,,,0.00,WUHU216HW,2013-02-22 22:55:00,
2013-02-22 15:00:00,59.8,42.1,30.19,NE,45,0.9,3.8,52,0.00,,,0.00,WUHU216HW,2013-02-22 23:00:00,
2013-02-22 15:05:00,59.6,42.0,30.19,SSW,203,4.0,4.7,52,0.00,,,0.00,WUHU216HW,2013-02-22 23:05:00,
2013-02-22 15:10:00,59.6,42.4,30.19,ESE,113,1.8,4.7,53,0.00,,,0.00,WUHU216HW,2013-02-22 23:10:00,
2013-02-22 15:15:00,59.6,42.4,30.19,NW,315,0.7,4.5,53,0.00,,,0.00,WUHU216HW,2013-02-22 23:15:00,
2013-02-22 15:20:00,59.6,42.4,30.19,ESE,113,0.4,4.7,53,0.00,,,0.00,WUHU216HW,2013-02-22 23:20:00,
2013-02-22 15:25:00,59.8,42.6,30.18,SE,135,2.2,4.7,53,0.00,,,0.00,WUHU216HW,2013-02-22 23:25:00,
2013-02-22 15:30:00,59.8,42.6,30.18,SW,225,0.9,4.7,53,0.00,,,0.00,WUHU216HW,2013-02-22 23:30:00,
2013-02-22 15:35:00,59.8,42.1,30.18,WNW,293,0.9,3.4,52,0.00,,,0.00,WUHU216HW,2013-02-22 23:35:00,
2013-02-22 15:40:00,59.6,41.5,30.19,NNW,338,0.9,3.4,51,0.00,,,0.00,WUHU216HW,2013-02-22 23:40:00,
2013-02-22 15:45:00,59.2,40.7,30.19,NNW,338,0.7,3.4,50,0.00,,,0.00,WUHU216HW,2013-02-22 23:45:00,
2013-02-22 15:50:00,59.2,41.6,30.19,North,0,1.6,3.4,52,0.00,,,0.00,WUHU216HW,2013-02-22 23:50:00,
2013-02-22 15:55:00,59.2,42.0,30.18,WNW,293,1.8,3.6,53,0.00,,,0.00,WUHU216HW,2013-02-22 23:55:00,
2013-02-22 16:00:00,59.4,42.2,30.19,West,270,2.9,5.1,53,0.00,,,0.00,WUHU216HW,2013-02-23 00:00:00,
2013-02-22 16:05:00,59.4,41.8,30.19,WNW,293,2.0,5.1,52,0.00,,,0.00,WUHU216HW,2013-02-23 00:05:00,
2013-02-22 16:10:00,59.2,41.6,30.19,NW,315,2.9,3.8,52,0.00,,,0.00,WUHU216HW,2013-02-23 00:10:00,
2013-02-22 16:15:00,58.7,41.6,30.19,WNW,293,1.8,3.8,53,0.00,,,0.00,WUHU216HW,2013-02-23 00:15:00,
2013-02-22 16:26:00,58.7,42.0,30.19,West,270,1.1,1.1,54,0.00,,,0.00,WUHU216HW,2013-02-23 00:26:00,
2013-02-22 16:31:00,58.7,41.6,30.19,West,270,0.9,1.1,53,0.00,,,0.00,WUHU216HW,2013-02-23 00:31:00,
2013-02-22 16:36:00,58.5,41.9,30.19,WNW,293,0.7,2.5,54,0.00,,,0.00,WUHU216HW,2013-02-23 00:36:00,
2013-02-22 16:41:00,58.5,42.4,30.19,ENE,68,0.0,2.5,55,0.00,,,0.00,WUHU216HW,2013-02-23 00:41:00,
2013-02-22 16:46:00,58.3,42.2,30.19,North,0,0.4,2.5,55,0.00,,,0.00,WUHU216HW,2013-02-23 00:46:00,
2013-02-22 16:51:00,58.0,41.9,30.19,SSE,158,0.4,0.9,55,0.00,,,0.00,WUHU216HW,2013-02-23 00:51:00,
2013-02-22 16:56:00,57.8,42.2,30.19,WNW,293,0.2,3.4,56,0.00,,,0.00,WUHU216HW,2013-02-23 00:56:00,
2013-02-22 17:01:00,57.6,41.6,30.19,West,270,1.6,3.4,55,0.00,,,0.00,WUHU216HW,2013-02-23 01:01:00,
2013-02-22 17:06:00,57.6,42.0,30.19,West,270,0.4,2.7,56,0.00,,,0.00,WUHU216HW,2013-02-23 01:06:00,
2013-02-22 17:11:00,57.4,41.9,30.19,West,270,2.0,3.8,56,0.00,,,0.00,WUHU216HW,2013-02-23 01:11:00,
2013-02-22 17:17:00,57.2,41.7,30.20,West,270,1.3,3.8,56,0.00,,,0.00,WUHU216HW,2013-02-23 01:17:00,
2013-02-22 17:22:00,56.7,41.6,30.19,NW,315,0.9,3.4,57,0.00,,,0.00,WUHU216HW,2013-02-23 01:22:00,
2013-02-22 17:27:00,55.8,41.7,30.20,WNW,293,0.9,1.8,59,0.00,,,0.00,WUHU216HW,2013-02-23 01:27:00,
2013-02-22 17:32:00,55.4,41.8,30.20,NW,315,1.3,1.6,60,0.00,,,0.00,WUHU216HW,2013-02-23 01:32:00,
2013-02-22 17:37:00,54.9,41.3,30.20,NW,315,1.1,1.6,60,0.00,,,0.00,WUHU216HW,2013-02-23 01:37:00,
2013-02-22 17:42:00,54.4,41.2,30.21,NW,315,0.4,1.1,61,0.00,,,0.00,WUHU216HW,2013-02-23 01:42:00,
2013-02-22 17:47:00,53.6,41.3,30.21,NW,315,0.0,1.1,63,0.00,,,0.00,WUHU216HW,2013-02-23 01:47:00,
2013-02-22 17:52:00,53.1,40.8,30.21,NW,315,0.0,0.9,63,0.00,,,0.00,WUHU216HW,2013-02-23 01:52:00,
2013-02-22 17:57:00,52.9,41.1,30.21,NW,315,0.0,0.0,64,0.00,,,0.00,WUHU216HW,2013-02-23 01:57:00,
2013-02-22 18:02:00,52.7,40.9,30.21,NW,315,0.0,0.0,64,0.00,,,0.00,WUHU216HW,2013-02-23 02:02:00,
2013-02-22 18:07:00,52.6,40.7,30.21,NW,315,0.0,0.0,64,0.00,,,0.00,WUHU216HW,2013-02-23 02:07:00,
2013-02-22 18:12:00,52.2,40.3,30.21,NW,315,0.0,0.0,64,0.00,,,0.00,WUHU216HW,2013-02-23 02:12:00,
2013-02-22 18:17:00,51.7,40.2,30.21,NW,315,0.0,0.0,65,0.00,,,0.00,WUHU216HW,2013-02-23 02:17:00,
2013-02-22 18:22:00,51.5,40.1,30.21,NW,315,0.0,0.0,65,0.00,,,0.00,WUHU216HW,2013-02-23 02:22:00,
2013-02-22 18:27:00,51.1,40.2,30.22,NW,315,0.0,0.0,66,0.00,,,0.00,WUHU216HW,2013-02-23 02:27:00,
2013-02-22 18:32:00,50.8,40.2,30.22,NW,315,0.0,0.0,67,0.00,,,0.00,WUHU216HW,2013-02-23 02:32:00,
2013-02-22 18:37:00,50.2,39.7,30.22,NW,315,0.0,0.0,67,0.00,,,0.00,WUHU216HW,2013-02-23 02:37:00,
2013-02-22 18:42:00,49.9,39.7,30.22,NW,315,0.0,0.0,68,0.00,,,0.00,WUHU216HW,2013-02-23 02:42:00,
2013-02-22 18:47:00,49.3,39.2,30.22,ENE,68,0.0,0.2,68,0.00,,,0.00,WUHU216HW,2013-02-23 02:47:00,
2013-02-22 18:52:00,49.1,39.0,30.22,ENE,68,0.0,0.2,68,0.00,,,0.00,WUHU216HW,2013-02-23 02:52:00,
2013-02-22 18:57:00,49.0,39.3,30.22,SE,135,0.0,0.0,69,0.00,,,0.00,WUHU216HW,2013-02-23 02:57:00,
2013-02-22 19:02:00,48.8,39.1,30.22,SE,135,0.0,0.0,69,0.00,,,0.00,WUHU216HW,2013-02-23 03:02:00,
2013-02-22 19:07:00,48.4,39.1,30.22,SE,135,0.0,0.0,70,0.00,,,0.00,WUHU216HW,2013-02-23 03:07:00,
2013-02-22 19:12:00,47.9,38.5,30.22,SE,135,0.0,0.0,70,0.00,,,0.00,WUHU216HW,2013-02-23 03:12:00,
2013-02-22 19:17:00,47.2,38.6,30.23,East,90,0.0,0.0,72,0.00,,,0.00,WUHU216HW,2013-02-23 03:17:00,
2013-02-22 19:22:00,47.0,38.4,30.23,East,90,0.0,0.0,72,0.00,,,0.00,WUHU216HW,2013-02-23 03:22:00,
2013-02-22 19:27:00,46.6,38.1,30.23,East,90,0.0,0.0,72,0.00,,,0.00,WUHU216HW,2013-02-23 03:27:00,
2013-02-22 19:32:00,46.4,38.3,30.23,East,90,0.0,0.0,73,0.00,,,0.00,WUHU216HW,2013-02-23 03:32:00,
2013-02-22 19:37:00,46.3,38.1,30.23,East,90,0.0,0.0,73,0.00,,,0.00,WUHU216HW,2013-02-23 03:37:00,
2013-02-22 19:42:00,45.7,38.3,30.23,NE,45,0.0,0.0,75,0.00,,,0.00,WUHU216HW,2013-02-23 03:42:00,
2013-02-22 19:47:00,45.4,37.5,30.23,North,0,0.0,0.0,74,0.00,,,0.00,WUHU216HW,2013-02-23 03:47:00,
2013-02-22 19:52:00,44.6,37.2,30.23,NNE,23,0.0,0.0,75,0.00,,,0.00,WUHU216HW,2013-02-23 03:52:00,
2013-02-22 19:57:00,44.5,37.4,30.23,ESE,113,0.0,0.0,76,0.00,,,0.00,WUHU216HW,2013-02-23 03:57:00,
2013-02-22 20:02:00,44.3,37.2,30.23,ESE,113,0.0,0.0,76,0.00,,,0.00,WUHU216HW,2013-02-23 04:02:00,
2013-02-22 20:07:00,44.1,37.4,30.23,ESE,113,0.0,0.0,77,0.00,,,0.00,WUHU216HW,2013-02-23 04:07:00,
2013-02-22 20:12:00,43.9,37.2,30.23,ESE,113,0.0,0.0,77,0.00,,,0.00,WUHU216HW,2013-02-23 04:12:00,
2013-02-22 20:17:00,43.9,37.5,30.23,ESE,113,0.0,0.0,78,0.00,,,0.00,WUHU216HW,2013-02-23 04:17:00,
2013-02-22 20:22:00,43.7,37.4,30.23,SE,135,0.0,0.0,78,0.00,,,0.00,WUHU216HW,2013-02-23 04:22:00,
2013-02-22 20:27:00,43.7,37.4,30.23,SE,135,0.0,0.0,78,0.00,,,0.00,WUHU216HW,2013-02-23 04:27:00,
2013-02-22 20:32:00,43.9,37.8,30.23,SE,135,0.0,0.0,79,0.00,,,0.00,WUHU216HW,2013-02-23 04:32:00,
2013-02-22 20:37:00,43.9,37.5,30.23,SE,135,0.0,0.0,78,0.00,,,0.00,WUHU216HW,2013-02-23 04:37:00,
2013-02-22 20:42:00,44.3,37.8,30.23,NNE,23,0.0,0.0,78,0.00,,,0.00,WUHU216HW,2013-02-23 04:42:00,
2013-02-22 20:47:00,43.9,37.2,30.23,NNE,23,0.0,0.0,77,0.00,,,0.00,WUHU216HW,2013-02-23 04:47:00,
2013-02-22 20:52:00,43.9,37.5,30.23,NNE,23,0.0,0.0,78,0.00,,,0.00,WUHU216HW,2013-02-23 04:52:00,
2013-02-22 20:57:00,43.9,37.5,30.23,NNE,23,0.0,0.0,78,0.00,,,0.00,WUHU216HW,2013-02-23 04:57:00,
2013-02-22 21:02:00,43.7,37.4,30.22,NNE,23,0.0,0.0,78,0.00,,,0.00,WUHU216HW,2013-02-23 05:02:00,
2013-02-22 21:07:00,43.9,37.5,30.23,SE,135,0.0,0.0,78,0.00,,,0.00,WUHU216HW,2013-02-23 05:07:00,
2013-02-22 21:12:00,43.9,37.5,30.22,SE,135,0.0,0.0,78,0.00,,,0.00,WUHU216HW,2013-02-23 05:12:00,
2013-02-22 21:17:00,43.7,37.4,30.23,SSE,158,0.0,0.0,78,0.00,,,0.00,WUHU216HW,2013-02-23 05:17:00,
2013-02-22 21:22:00,43.7,37.4,30.23,SSW,203,0.0,0.0,78,0.00,,,0.00,WUHU216HW,2013-02-23 05:22:00,
2013-02-22 21:27:00,43.7,37.4,30.23,SSW,203,0.0,0.0,78,0.00,,,0.00,WUHU216HW,2013-02-23 05:27:00,
2013-02-22 21:55:00,41.8,36.0,30.23,North,0,0.0,0.0,80,0.00,,,0.00,WUHU216HW,2013-02-23 05:55:00,
2013-02-22 22:00:00,41.0,35.6,30.23,NNE,23,0.0,0.0,81,0.00,,,0.00,WUHU216HW,2013-02-23 06:00:00,
2013-02-22 22:05:00,41.0,35.6,30.23,NNE,23,0.0,0.0,81,0.00,,,0.00,WUHU216HW,2013-02-23 06:05:00,
2013-02-22 22:34:00,40.3,35.2,30.23,NNE,23,0.0,0.0,82,0.00,,,0.00,WUHU216HW,2013-02-23 06:34:00,
2013-02-22 23:04:00,40.0,35.2,30.23,North,0,0.0,0.0,83,0.00,,,0.00,WUHU216HW,2013-02-23 07:04:00,
2013-02-22 23:34:00,39.2,34.8,30.21,ESE,113,0.0,0.0,84,0.00,,,0.00,WUHU216HW,2013-02-23 07:34:00,